Tracking 18980 objects as of 19-Feb-2018
HD Live streaming from Space Station
objects crossing your sky now

FENGYUN 1C DEB

Track FENGYUN 1C DEB now!
10-day predictions


NORAD ID: 30755
Int'l Code: 1999-025ATR
Perigee: 656.6 km
Apogee: 903.4 km
Inclination: 98.5 °
Period: 100.3 minutes
Semi major axis: 7150 km
RCS: 0.0033 m2 (small)
Launch date: May 10, 1999
Source: People's Republic of China (PRC)
Launch site: Taiyaun Space Center, China (TSC)

Note: This is SATELLITE DEBRIS
aabbcc
Your satellite tracking list
Your tracking list is empty




NASA's NSSDC Master Catalog

Two Line Element Set (TLE):
1 30755U 99025ATR 18049.10887222  .00000199  00000-0  72479-4 0  9999
2 30755  98.4525  98.5121 0172583 198.5895 189.2516 14.35664339574329
Source of the keplerian elements: AFSPC